Home > Weather > Bandar-Abbas > Past weeks

Flag for Iran Weather for the Past 2 Weeks in Bandar-Abbas, Iran

Now
77 °F

Sandstorm.


Feels Like: 77 °F
Forecast: 52 / 73 °F
Wind: 14 mph from East

Location: Bandarabbass

Current Time: Feb 10, 2016 at 1:11:51 PM

Latest Report: Feb 10, 2016 at 12:30 PM


Visibility: 2 mi

Pressure: 30.04 "Hg

Humidity: 24%

Dew point: 37 °F

Location of Bandar-AbbasLocation

Historic Weather in Bandar-Abbas — Graph

°F

Bandar-Abbas Temperature Yesterday

Maximum temperature yesterday: 77 °F (at 2:00 PM)
Minimum temperature yesterday: 59 °F (at 12:30 AM)
Average temperature yesterday: 68 °F

High & Low Weather Summary for the Past Weeks

 TemperatureHumidityPressure
High79 °F (Feb 5, 2:00 PM)94% (Jan 28, 8:00 AM)30.27 "Hg (Jan 28, 8:00 AM)
Low46 °F (Feb 1, 3:30 AM)19% (Feb 5, 10:30 AM)29.86 "Hg (Jan 28, 3:30 PM)
Average66 °F58%30.04 "Hg
* Reported Jan 26 11:30 AM — Feb 10 12:00 Noon, Bandar-Abbas, Weather by CustomWeather, © 2016

Note: Actual official high and low records may vary slightly from our data, if they occured in-between our weather recording intervals... More about our weather records

Advertising

Bandar-Abbas Weather History for the Previous 24 Hours

 ConditionsComfort  
Time TempWeatherWind HumidityBarometerVisibility
12:00 PM
Wed, Feb 10
75 °FSandstorm.21 mph25%30.07 "Hg2 mi
11:30 AM75 °FSandstorm.18 mph24%30.07 "Hg2 mi
11:00 AM73 °FSandstorm.18 mph25%30.07 "Hg2 mi
10:30 AM73 °FSandstorm.16 mph27%30.09 "Hg2 mi
10:00 AM72 °FSandstorm.18 mph27%30.09 "Hg2 mi
9:30 AM70 °FHaze.14 mph33%30.09 "Hg2 mi
9:00 AM70 °FHaze.9 mph35%30.09 "Hg2 mi
8:30 AM68 °FHaze.9 mph49%30.09 "Hg3 mi
8:00 AM66 °FHaze.7 mph64%30.07 "Hg2 mi
7:30 AM63 °FScattered clouds.7 mph73%30.04 "Hg2 mi
7:00 AM63 °FScattered clouds.7 mph73%30.04 "Hg2 mi
6:30 AM63 °FPassing clouds.9 mph68%30.01 "Hg2 mi
6:00 AM63 °FPassing clouds.9 mph73%30.01 "Hg3 mi
5:30 AM61 °FHaze.9 mph72%29.98 "Hg3 mi
4:30 AM61 °FHaze.9 mph72%29.98 "Hg3 mi
3:30 AM61 °FHaze.9 mph72%29.95 "Hg3 mi
2:30 AM61 °FHaze.7 mph72%29.98 "Hg3 mi
1:30 AM61 °FHaze.7 mph72%29.98 "Hg3 mi
1:00 AM61 °FHaze.9 mph72%29.98 "Hg3 mi
12:30 AM61 °FHaze.5 mph72%29.95 "Hg3 mi
12:00 AM61 °FHaze.7 mph72%29.95 "Hg3 mi
11:30 PM
Tue, Feb 9
61 °FHaze.7 mph72%29.95 "Hg3 mi
11:00 PM63 °FHaze.5 mph68%29.95 "Hg3 mi
10:30 PM66 °FHaze.5 mph68%29.95 "Hg3 mi
10:00 PM66 °FHaze.9 mph64%29.95 "Hg3 mi
9:30 PM68 °FHaze.12 mph60%29.95 "Hg3 mi
9:00 PM68 °FHaze.7 mph60%29.95 "Hg3 mi
8:30 PM68 °FHaze.9 mph56%29.95 "Hg3 mi
8:00 PM68 °FHaze.14 mph53%29.95 "Hg3 mi
7:30 PM70 °FHaze.12 mph53%29.95 "Hg3 mi
7:00 PM72 °FHaze.12 mph44%29.95 "Hg3 mi
6:30 PM72 °FHaze.14 mph44%29.92 "Hg3 mi
6:00 PM73 °FHaze.14 mph50%29.92 "Hg3 mi
5:30 PM73 °FHaze.7 mph57%29.92 "Hg3 mi
5:00 PM73 °FHaze.9 mph65%29.92 "Hg3 mi
4:30 PM75 °FSandstorm.16 mph61%29.92 "Hg2 mi
4:00 PM75 °FSandstorm.16 mph61%29.92 "Hg2 mi
3:30 PM77 °FHaze.9 mph54%29.92 "Hg3 mi
3:00 PM75 °FHaze.7 mph54%29.92 "Hg3 mi
2:00 PM77 °FPassing clouds.14 mph47%29.95 "Hg4 mi
1:00 PM75 °FPassing clouds.14 mph47%29.95 "Hg4 mi
Weather by CustomWeather, © 2016

See weather overviewHow to use our weather pages